owner,sensor,date,latitude,longitude,vertical_datum,direction_of_sea_water_velocity,sea_water_speed,upward_sea_water_velocity,qcFlag 
TABS,ioos:station:wmo:42050:1,2011-11-01T00:00:00Z,28.8425,-94.2433,2.0,310.9348996,12.86636312,-99999.0,'11111222,11111222,99999999' 
TABS,ioos:station:wmo:42050:1,2011-11-01T00:30:00Z,28.8425,-94.2433,2.0,317.2194531,12.2350521,-99999.0,'11111222,11111222,99999999' 
TABS,ioos:station:wmo:42050:1,2011-11-01T01:00:00Z,28.8425,-94.2433,2.0,326.4071959,9.832075061,-99999.0,'11133222,11111222,99999999' 
TABS,ioos:station:wmo:42050:1,2011-11-01T01:30:00Z,28.8425,-94.2433,2.0,306.4430721,8.316231118,-99999.0,'11133222,11111222,99999999' 
TABS,ioos:station:wmo:42050:1,2011-11-01T02:00:00Z,28.8425,-94.2433,2.0,313.7996845,4.724510557,-99999.0,'11133222,11111222,99999999' 
TABS,ioos:station:wmo:42050:1,2011-11-01T02:30:00Z,28.8425,-94.2433,2.0,310.8026571,3.091278053,-99999.0,'11133222,11111222,99999999' 
TABS,ioos:station:wmo:42050:1,2011-11-01T03:00:00Z,28.8425,-94.2433,2.0,297.8049987,2.894149271,-99999.0,'11133222,11111222,99999999' 
TABS,ioos:station:wmo:42050:1,2011-11-01T03:30:00Z,28.8425,-94.2433,2.0,229.0477042,2.303844613,-99999.0,'11133222,11111222,99999999' 
TABS,ioos:station:wmo:42050:1,2011-11-01T04:00:00Z,28.8425,-94.2433,2.0,176.4878551,2.775211704,-99999.0,'11133222,11111222,99999999' 
TABS,ioos:station:wmo:42050:1,2011-11-01T04:30:00Z,28.8425,-94.2433,2.0,176.3411058,5.641498028,-99999.0,'11133222,11111222,99999999' 
TABS,ioos:station:wmo:42050:1,2011-11-01T05:00:00Z,28.8425,-94.2433,2.0,183.820204,6.003340737,-99999.0,'11133222,11111222,99999999' 
TABS,ioos:station:wmo:42050:1,2011-11-01T05:30:00Z,28.8425,-94.2433,2.0,171.4603699,6.532419154,-99999.0,'11133222,11111222,99999999' 
TABS,ioos:station:wmo:42050:1,2011-11-01T06:00:00Z,28.8425,-94.2433,2.0,204.9416227,5.999541649,-99999.0,'11133222,11111222,99999999' 
TABS,ioos:station:wmo:42050:1,2011-11-01T06:30:00Z,28.8425,-94.2433,2.0,195.3148142,5.868398419,-99999.0,'11133222,11111222,99999999' 
TABS,ioos:station:wmo:42050:1,2011-11-01T07:00:00Z,28.8425,-94.2433,2.0,195.8036028,7.784246913,-99999.0,'11133222,11111222,99999999' 
TABS,ioos:station:wmo:42050:1,2011-11-01T07:30:00Z,28.8425,-94.2433,2.0,205.8408649,4.955522172,-99999.0,'11133222,11111222,99999999' 
TABS,ioos:station:wmo:42050:1,2011-11-01T08:00:00Z,28.8425,-94.2433,2.0,184.7775742,3.361681127,-99999.0,'11133222,11111222,99999999' 
TABS,ioos:station:wmo:42050:1,2011-11-01T08:30:00Z,28.8425,-94.2433,2.0,199.0219877,5.5532513,-99999.0,'11133222,11111222,99999999' 
TABS,ioos:station:wmo:42050:1,2011-11-01T09:00:00Z,28.8425,-94.2433,2.0,217.2847795,6.900181157,-99999.0,'11133222,11111222,99999999' 
TABS,ioos:station:wmo:42050:1,2011-11-01T09:30:00Z,28.8425,-94.2433,2.0,220.7257482,3.985021957,-99999.0,'11133222,11111222,99999999' 
TABS,ioos:station:wmo:42050:1,2011-11-01T10:00:00Z,28.8425,-94.2433,2.0,202.098488,4.651730861,-99999.0,'11133222,11111222,99999999' 
TABS,ioos:station:wmo:42050:1,2011-11-01T10:30:00Z,28.8425,-94.2433,2.0,211.3320371,5.865372963,-99999.0,'11133222,11111222,99999999' 
TABS,ioos:station:wmo:42050:1,2011-11-01T11:00:00Z,28.8425,-94.2433,2.0,187.8497008,5.784202624,-99999.0,'11133222,11111222,99999999' 
TABS,ioos:station:wmo:42050:1,2011-11-01T11:30:00Z,28.8425,-94.2433,2.0,201.2502454,6.180226533,-99999.0,'11133222,11111222,99999999' 
TABS,ioos:station:wmo:42050:1,2011-11-01T12:00:00Z,28.8425,-94.2433,2.0,204.9345948,8.017312517,-99999.0,'11133222,11111222,99999999' 
TABS,ioos:station:wmo:42050:1,2011-11-01T12:30:00Z,28.8425,-94.2433,2.0,216.6820545,4.888026187,-99999.0,'11133222,11111222,99999999' 
TABS,ioos:station:wmo:42050:1,2011-11-01T13:00:00Z,28.8425,-94.2433,2.0,204.4037042,5.929797636,-99999.0,'11133222,11111222,99999999' 
TABS,ioos:station:wmo:42050:1,2011-11-01T13:30:00Z,28.8425,-94.2433,2.0,214.5397997,8.412954297,-99999.0,'11133222,11111222,99999999' 
TABS,ioos:station:wmo:42050:1,2011-11-01T14:00:00Z,28.8425,-94.2433,2.0,198.4346953,7.431352501,-99999.0,'11133222,11111222,99999999' 
TABS,ioos:station:wmo:42050:1,2011-11-01T14:30:00Z,28.8425,-94.2433,2.0,207.3264188,9.083710696,-99999.0,'11133222,11111222,99999999' 
TABS,ioos:station:wmo:42050:1,2011-11-01T15:00:00Z,28.8425,-94.2433,2.0,208.7989992,10.89793558,-99999.0,'11111222,11111222,99999999' 
TABS,ioos:station:wmo:42050:1,2011-11-01T15:30:00Z,28.8425,-94.2433,2.0,215.9111228,9.445321593,-99999.0,'11133222,11111222,99999999' 
TABS,ioos:station:wmo:42050:1,2011-11-01T16:00:00Z,28.8425,-94.2433,2.0,221.833076,11.90464195,-99999.0,'11111222,11111222,99999999' 
TABS,ioos:station:wmo:42050:1,2011-11-01T16:30:00Z,28.8425,-94.2433,2.0,226.340809,14.80380019,-99999.0,'11111222,11111222,99999999' 
TABS,ioos:station:wmo:42050:1,2011-11-01T17:00:00Z,28.8425,-94.2433,2.0,235.7902555,18.0534595,-99999.0,'11111222,11111222,99999999' 
TABS,ioos:station:wmo:42050:1,2011-11-01T17:30:00Z,28.8425,-94.2433,2.0,236.0095722,19.06808066,-99999.0,'11111222,11111222,99999999' 
TABS,ioos:station:wmo:42050:1,2011-11-01T18:30:00Z,28.8425,-94.2433,2.0,247.5967645,21.93554194,-99999.0,'11111222,11111222,99999999' 
TABS,ioos:station:wmo:42050:1,2011-11-01T19:00:00Z,28.8425,-94.2433,2.0,246.6596693,19.15766687,-99999.0,'11111222,11111222,99999999' 
TABS,ioos:station:wmo:42050:1,2011-11-01T19:30:00Z,28.8425,-94.2433,2.0,251.3717595,15.96643041,-99999.0,'11111222,11111222,99999999' 
TABS,ioos:station:wmo:42050:1,2011-11-01T20:00:00Z,28.8425,-94.2433,2.0,255.3435181,13.00309579,-99999.0,'11111222,11111222,99999999' 
TABS,ioos:station:wmo:42050:1,2011-11-01T20:30:00Z,28.8425,-94.2433,2.0,260.1819397,13.25410125,-99999.0,'11111222,11111222,99999999' 
TABS,ioos:station:wmo:42050:1,2011-11-01T21:00:00Z,28.8425,-94.2433,2.0,275.7156543,12.25089793,-99999.0,'11111222,11111222,99999999' 
TABS,ioos:station:wmo:42050:1,2011-11-01T21:30:00Z,28.8425,-94.2433,2.0,289.4040013,10.47496062,-99999.0,'11111222,11111222,99999999' 
TABS,ioos:station:wmo:42050:1,2011-11-01T22:00:00Z,28.8425,-94.2433,2.0,298.5985858,11.21870759,-99999.0,'11111222,11111222,99999999' 
TABS,ioos:station:wmo:42050:1,2011-11-01T22:30:00Z,28.8425,-94.2433,2.0,303.2570895,13.20224223,-99999.0,'11111222,11111222,99999999' 
TABS,ioos:station:wmo:42050:1,2011-11-01T23:00:00Z,28.8425,-94.2433,2.0,308.3087207,12.98609256,-99999.0,'11111222,11111222,99999999' 
TABS,ioos:station:wmo:42050:1,2011-11-01T23:30:00Z,28.8425,-94.2433,2.0,311.1820892,12.95466711,-99999.0,'11111222,11111222,99999999' 
TABS,ioos:station:wmo:42050:1,2011-11-02T00:00:00Z,28.8425,-94.2433,2.0,316.5309759,13.76520977,-99999.0,'11111222,11111222,99999999' 
TABS,ioos:station:wmo:42050:1,2011-11-02T00:30:00Z,28.8425,-94.2433,2.0,317.1467307,13.02697586,-99999.0,'11111222,11111222,99999999' 
TABS,ioos:station:wmo:42050:1,2011-11-02T01:00:00Z,28.8425,-94.2433,2.0,304.5559722,10.64868536,-99999.0,'11111222,11111222,99999999' 
TABS,ioos:station:wmo:42050:1,2011-11-02T01:30:00Z,28.8425,-94.2433,2.0,296.7809862,10.69742492,-99999.0,'11111222,11111222,99999999' 
TABS,ioos:station:wmo:42050:1,2011-11-02T02:00:00Z,28.8425,-94.2433,2.0,291.2867763,8.263776376,-99999.0,'11133222,11111222,99999999' 
TABS,ioos:station:wmo:42050:1,2011-11-02T02:30:00Z,28.8425,-94.2433,2.0,269.8147551,6.200032258,-99999.0,'11133222,11111222,99999999' 
TABS,ioos:station:wmo:42050:1,2011-11-02T03:00:00Z,28.8425,-94.2433,2.0,277.4705039,6.384183581,-99999.0,'11133222,11111222,99999999' 
TABS,ioos:station:wmo:42050:1,2011-11-02T03:30:00Z,28.8425,-94.2433,2.0,285.0899101,6.069266842,-99999.0,'11133222,11111222,99999999' 
TABS,ioos:station:wmo:42050:1,2011-11-02T04:00:00Z,28.8425,-94.2433,2.0,242.0512099,8.150607339,-99999.0,'11133222,11111222,99999999' 
TABS,ioos:station:wmo:42050:1,2011-11-02T04:30:00Z,28.8425,-94.2433,2.0,236.6186057,8.74220224,-99999.0,'11133222,11111222,99999999' 
TABS,ioos:station:wmo:42050:1,2011-11-02T05:00:00Z,28.8425,-94.2433,2.0,234.0784209,11.11352329,-99999.0,'11111222,11111222,99999999' 
TABS,ioos:station:wmo:42050:1,2011-11-02T05:30:00Z,28.8425,-94.2433,2.0,237.0336026,11.63299188,-99999.0,'11111222,11111222,99999999' 
TABS,ioos:station:wmo:42050:1,2011-11-02T06:00:00Z,28.8425,-94.2433,2.0,242.6297233,10.50608395,-99999.0,'11111222,11111222,99999999' 
TABS,ioos:station:wmo:42050:1,2011-11-02T06:30:00Z,28.8425,-94.2433,2.0,240.2547673,12.09338662,-99999.0,'11111222,11111222,99999999' 
TABS,ioos:station:wmo:42050:1,2011-11-02T07:00:00Z,28.8425,-94.2433,2.0,237.5965392,14.20113376,-99999.0,'11111222,11111222,99999999' 
TABS,ioos:station:wmo:42050:1,2011-11-02T07:30:00Z,28.8425,-94.2433,2.0,235.3906515,15.56411578,-99999.0,'11111222,11111222,99999999' 
TABS,ioos:station:wmo:42050:1,2011-11-02T08:00:00Z,28.8425,-94.2433,2.0,237.1320718,13.52498429,-99999.0,'11111222,11111222,99999999' 
TABS,ioos:station:wmo:42050:1,2011-11-02T08:30:00Z,28.8425,-94.2433,2.0,230.335281,12.47082996,-99999.0,'11111222,11111222,99999999' 
TABS,ioos:station:wmo:42050:1,2011-11-02T09:00:00Z,28.8425,-94.2433,2.0,248.0540916,12.54933066,-99999.0,'11111222,11111222,99999999' 
TABS,ioos:station:wmo:42050:1,2011-11-02T09:30:00Z,28.8425,-94.2433,2.0,221.9207341,11.58499029,-99999.0,'11111222,11111222,99999999' 
TABS,ioos:station:wmo:42050:1,2011-11-02T10:00:00Z,28.8425,-94.2433,2.0,226.4077853,12.66103471,-99999.0,'11111222,11111222,99999999' 
TABS,ioos:station:wmo:42050:1,2011-11-02T10:30:00Z,28.8425,-94.2433,2.0,213.8609489,10.21207618,-99999.0,'11111222,11111222,99999999' 
TABS,ioos:station:wmo:42050:1,2011-11-02T11:00:00Z,28.8425,-94.2433,2.0,223.014065,13.06103365,-99999.0,'11111222,11111222,99999999' 
TABS,ioos:station:wmo:42050:1,2011-11-02T11:30:00Z,28.8425,-94.2433,2.0,227.5622549,10.12174886,-99999.0,'11111222,11111222,99999999' 
TABS,ioos:station:wmo:42050:1,2011-11-02T12:00:00Z,28.8425,-94.2433,2.0,226.5356939,10.81554899,-99999.0,'11111222,11111222,99999999' 
TABS,ioos:station:wmo:42050:1,2011-11-02T12:30:00Z,28.8425,-94.2433,2.0,194.9423678,6.592943197,-99999.0,'11133222,11111222,99999999' 
TABS,ioos:station:wmo:42050:1,2011-11-02T13:00:00Z,28.8425,-94.2433,2.0,199.8130075,7.493603939,-99999.0,'11133222,11111222,99999999' 
TABS,ioos:station:wmo:42050:1,2011-11-02T13:30:00Z,28.8425,-94.2433,2.0,211.9406756,7.541889684,-99999.0,'11133222,11111222,99999999' 
TABS,ioos:station:wmo:42050:1,2011-11-02T14:00:00Z,28.8425,-94.2433,2.0,213.2467795,9.685354924,-99999.0,'11133222,11111222,99999999' 
TABS,ioos:station:wmo:42050:1,2011-11-02T14:30:00Z,28.8425,-94.2433,2.0,207.9064469,12.60593511,-99999.0,'11111222,11111222,99999999' 
TABS,ioos:station:wmo:42050:1,2011-11-02T15:00:00Z,28.8425,-94.2433,2.0,200.1666493,11.71842993,-99999.0,'11111222,11111222,99999999' 
TABS,ioos:station:wmo:42050:1,2011-11-02T15:30:00Z,28.8425,-94.2433,2.0,204.6322882,12.06821445,-99999.0,'11111222,11111222,99999999' 
TABS,ioos:station:wmo:42050:1,2011-11-02T16:00:00Z,28.8425,-94.2433,2.0,204.4398703,12.42319202,-99999.0,'11111222,11111222,99999999' 
TABS,ioos:station:wmo:42050:1,2011-11-02T16:30:00Z,28.8425,-94.2433,2.0,202.9710134,11.91483949,-99999.0,'11111222,11111222,99999999' 
TABS,ioos:station:wmo:42050:1,2011-11-02T17:00:00Z,28.8425,-94.2433,2.0,202.3744553,11.50625917,-99999.0,'11111222,11111222,99999999' 
TABS,ioos:station:wmo:42050:1,2011-11-02T17:30:00Z,28.8425,-94.2433,2.0,213.5586672,15.75630033,-99999.0,'11111222,11111222,99999999' 
TABS,ioos:station:wmo:42050:1,2011-11-02T18:00:00Z,28.8425,-94.2433,2.0,261.8231025,43.66385805,-99999.0,'11111222,11111222,99999999' 
TABS,ioos:station:wmo:42050:1,2011-11-02T18:30:00Z,28.8425,-94.2433,2.0,271.2221808,46.43055567,-99999.0,'11111222,11111222,99999999' 
TABS,ioos:station:wmo:42050:1,2011-11-02T19:00:00Z,28.8425,-94.2433,2.0,275.6589749,44.92893277,-99999.0,'11111222,11111222,99999999' 
TABS,ioos:station:wmo:42050:1,2011-11-02T19:30:00Z,28.8425,-94.2433,2.0,275.611091,43.36776683,-99999.0,'11111222,11111222,99999999' 
TABS,ioos:station:wmo:42050:1,2011-11-02T20:00:00Z,28.8425,-94.2433,2.0,274.8457572,43.09400422,-99999.0,'11111222,11111222,99999999' 
TABS,ioos:station:wmo:42050:1,2011-11-02T20:30:00Z,28.8425,-94.2433,2.0,271.8354509,39.66033913,-99999.0,'11111222,11111222,99999999' 
TABS,ioos:station:wmo:42050:1,2011-11-02T21:00:00Z,28.8425,-94.2433,2.0,270.1178599,39.03008199,-99999.0,'11111222,11111222,99999999' 
TABS,ioos:station:wmo:42050:1,2011-11-02T21:30:00Z,28.8425,-94.2433,2.0,272.4133013,38.9545376,-99999.0,'11111222,11111222,99999999' 
TABS,ioos:station:wmo:42050:1,2011-11-02T22:00:00Z,28.8425,-94.2433,2.0,276.4720549,38.50536586,-99999.0,'11111222,11111222,99999999' 
TABS,ioos:station:wmo:42050:1,2011-11-02T22:30:00Z,28.8425,-94.2433,2.0,278.4808681,34.92182842,-99999.0,'11111222,11111222,99999999' 
TABS,ioos:station:wmo:42050:1,2011-11-02T23:00:00Z,28.8425,-94.2433,2.0,278.7280551,32.95155383,-99999.0,'11111222,11111222,99999999' 
TABS,ioos:station:wmo:42050:1,2011-11-02T23:30:00Z,28.8425,-94.2433,2.0,282.8815904,25.74796303,-99999.0,'11111222,11111222,99999999' 
TABS,ioos:station:wmo:42050:1,2011-11-03T00:00:00Z,28.8425,-94.2433,2.0,279.5050224,28.94738157,-99999.0,'11111222,11111222,99999999' 
TABS,ioos:station:wmo:42050:1,2011-11-03T00:30:00Z,28.8425,-94.2433,2.0,278.3003417,29.57982082,-99999.0,'11111222,11111222,99999999' 
TABS,ioos:station:wmo:42050:1,2011-11-03T01:00:00Z,28.8425,-94.2433,2.0,278.3026504,27.77103707,-99999.0,'11111222,11111222,99999999' 
TABS,ioos:station:wmo:42050:1,2011-11-03T01:30:00Z,28.8425,-94.2433,2.0,280.7473966,25.15114709,-99999.0,'11111222,11111222,99999999' 
TABS,ioos:station:wmo:42050:1,2011-11-03T02:00:00Z,28.8425,-94.2433,2.0,282.8964233,23.52333735,-99999.0,'11111222,11111222,99999999' 
TABS,ioos:station:wmo:42050:1,2011-11-03T02:30:00Z,28.8425,-94.2433,2.0,285.2749724,20.6494552,-99999.0,'11111222,11111222,99999999' 
TABS,ioos:station:wmo:42050:1,2011-11-03T03:00:00Z,28.8425,-94.2433,2.0,283.8285819,18.70204534,-99999.0,'11111222,11111222,99999999' 
TABS,ioos:station:wmo:42050:1,2011-11-03T03:30:00Z,28.8425,-94.2433,2.0,285.7699047,13.87210871,-99999.0,'11111222,11111222,99999999' 
TABS,ioos:station:wmo:42050:1,2011-11-03T04:00:00Z,28.8425,-94.2433,2.0,279.1819432,11.4061387,-99999.0,'11111222,11111222,99999999' 
TABS,ioos:station:wmo:42050:1,2011-11-03T04:30:00Z,28.8425,-94.2433,2.0,273.1677008,7.601611671,-99999.0,'11133222,11111222,99999999' 
TABS,ioos:station:wmo:42050:1,2011-11-03T05:00:00Z,28.8425,-94.2433,2.0,239.5082453,5.616769534,-99999.0,'11133222,11111222,99999999' 
TABS,ioos:station:wmo:42050:1,2011-11-03T05:30:00Z,28.8425,-94.2433,2.0,219.7590428,6.348070573,-99999.0,'11133222,11111222,99999999' 
TABS,ioos:station:wmo:42050:1,2011-11-03T06:00:00Z,28.8425,-94.2433,2.0,181.8628944,9.53504064,-99999.0,'11133222,11111222,99999999' 
TABS,ioos:station:wmo:42050:1,2011-11-03T06:30:00Z,28.8425,-94.2433,2.0,199.7112672,11.35539519,-99999.0,'11111222,11111222,99999999' 
TABS,ioos:station:wmo:42050:1,2011-11-03T07:00:00Z,28.8425,-94.2433,2.0,185.517864,13.62313106,-99999.0,'11111222,11111222,99999999' 
TABS,ioos:station:wmo:42050:1,2011-11-03T07:30:00Z,28.8425,-94.2433,2.0,184.3144324,15.6844509,-99999.0,'11111222,11111222,99999999' 
TABS,ioos:station:wmo:42050:1,2011-11-03T08:00:00Z,28.8425,-94.2433,2.0,187.0639901,18.70196781,-99999.0,'11111222,11111222,99999999' 
TABS,ioos:station:wmo:42050:1,2011-11-03T08:30:00Z,28.8425,-94.2433,2.0,182.1374367,23.05604476,-99999.0,'11111222,11111222,99999999' 
TABS,ioos:station:wmo:42050:1,2011-11-03T09:00:00Z,28.8425,-94.2433,2.0,161.2616899,42.42887342,-99999.0,'11111222,11111222,99999999' 
TABS,ioos:station:wmo:42050:1,2011-11-03T09:30:00Z,28.8425,-94.2433,2.0,178.8776595,47.9992052,-99999.0,'11111222,11111222,99999999' 
TABS,ioos:station:wmo:42050:1,2011-11-03T10:00:00Z,28.8425,-94.2433,2.0,183.2136394,51.37079423,-99999.0,'11111222,11111222,99999999' 
TABS,ioos:station:wmo:42050:1,2011-11-03T10:30:00Z,28.8425,-94.2433,2.0,193.322869,51.63983443,-99999.0,'11111222,11111222,99999999' 
TABS,ioos:station:wmo:42050:1,2011-11-03T11:00:00Z,28.8425,-94.2433,2.0,201.7964449,45.2446693,-99999.0,'11111222,11111222,99999999' 
TABS,ioos:station:wmo:42050:1,2011-11-03T11:30:00Z,28.8425,-94.2433,2.0,211.0696022,42.5900317,-99999.0,'11111222,11111222,99999999' 
TABS,ioos:station:wmo:42050:1,2011-11-03T12:00:00Z,28.8425,-94.2433,2.0,218.7628937,32.02348201,-99999.0,'11111222,11111222,99999999' 
TABS,ioos:station:wmo:42050:1,2011-11-03T12:30:00Z,28.8425,-94.2433,2.0,221.3761598,29.98470277,-99999.0,'11111222,11111222,99999999' 
TABS,ioos:station:wmo:42050:1,2011-11-03T13:00:00Z,28.8425,-94.2433,2.0,231.1893064,28.52835957,-99999.0,'11111222,11111222,99999999' 
TABS,ioos:station:wmo:42050:1,2011-11-03T13:30:00Z,28.8425,-94.2433,2.0,223.4433043,23.95147177,-99999.0,'11111222,11111222,99999999' 
TABS,ioos:station:wmo:42050:1,2011-11-03T14:00:00Z,28.8425,-94.2433,2.0,226.7293639,20.38103285,-99999.0,'11111222,11111222,99999999' 
TABS,ioos:station:wmo:42050:1,2011-11-03T14:30:00Z,28.8425,-94.2433,2.0,217.6158608,16.89143274,-99999.0,'11111222,11111222,99999999' 
TABS,ioos:station:wmo:42050:1,2011-11-03T15:00:00Z,28.8425,-94.2433,2.0,234.1475855,16.10054036,-99999.0,'11111222,11111222,99999999' 
TABS,ioos:station:wmo:42050:1,2011-11-03T15:30:00Z,28.8425,-94.2433,2.0,218.2520739,16.91092251,-99999.0,'11111222,11111222,99999999' 
TABS,ioos:station:wmo:42050:1,2011-11-03T16:00:00Z,28.8425,-94.2433,2.0,211.2135116,16.1124455,-99999.0,'11111222,11111222,99999999' 
TABS,ioos:station:wmo:42050:1,2011-11-03T16:30:00Z,28.8425,-94.2433,2.0,203.6517691,15.92796911,-99999.0,'11111222,11111222,99999999' 
TABS,ioos:station:wmo:42050:1,2011-11-03T17:00:00Z,28.8425,-94.2433,2.0,221.1137765,15.75520549,-99999.0,'11111222,11111222,99999999' 
TABS,ioos:station:wmo:42050:1,2011-11-03T17:30:00Z,28.8425,-94.2433,2.0,210.9246292,12.64802356,-99999.0,'11111222,11111222,99999999' 
TABS,ioos:station:wmo:42050:1,2011-11-03T18:00:00Z,28.8425,-94.2433,2.0,209.0252527,15.31329488,-99999.0,'11111222,11111222,99999999' 
TABS,ioos:station:wmo:42050:1,2011-11-03T18:30:00Z,28.8425,-94.2433,2.0,224.4197269,13.27307425,-99999.0,'11111222,11111222,99999999' 
TABS,ioos:station:wmo:42050:1,2011-11-03T19:00:00Z,28.8425,-94.2433,2.0,228.417127,13.99732117,-99999.0,'11111222,11111222,99999999' 
TABS,ioos:station:wmo:42050:1,2011-11-03T19:30:00Z,28.8425,-94.2433,2.0,227.4892314,14.16257392,-99999.0,'11111222,11111222,99999999' 
TABS,ioos:station:wmo:42050:1,2011-11-03T20:00:00Z,28.8425,-94.2433,2.0,221.3675754,15.40344117,-99999.0,'11111222,11111222,99999999' 
TABS,ioos:station:wmo:42050:1,2011-11-03T20:30:00Z,28.8425,-94.2433,2.0,220.6934625,14.78491461,-99999.0,'11111222,11111222,99999999' 
TABS,ioos:station:wmo:42050:1,2011-11-03T21:00:00Z,28.8425,-94.2433,2.0,217.5448429,13.40693104,-99999.0,'11111222,11111222,99999999' 
TABS,ioos:station:wmo:42050:1,2011-11-03T21:30:00Z,28.8425,-94.2433,2.0,210.0586903,13.57580569,-99999.0,'11111222,11111222,99999999' 
TABS,ioos:station:wmo:42050:1,2011-11-03T22:00:00Z,28.8425,-94.2433,2.0,201.1503035,22.55972518,-99999.0,'11111222,11111222,99999999' 
TABS,ioos:station:wmo:42050:1,2011-11-03T22:30:00Z,28.8425,-94.2433,2.0,202.5861011,22.36538844,-99999.0,'11111222,11111222,99999999' 
TABS,ioos:station:wmo:42050:1,2011-11-03T23:00:00Z,28.8425,-94.2433,2.0,205.1770741,23.08299157,-99999.0,'11111222,11111222,99999999' 
TABS,ioos:station:wmo:42050:1,2011-11-03T23:30:00Z,28.8425,-94.2433,2.0,207.065557,19.95543284,-99999.0,'11111222,11111222,99999999' 
TABS,ioos:station:wmo:42050:1,2011-11-04T00:00:00Z,28.8425,-94.2433,2.0,204.6040958,19.21460122,-99999.0,'11111222,11111222,99999999' 
TABS,ioos:station:wmo:42050:1,2011-11-04T00:30:00Z,28.8425,-94.2433,2.0,197.367655,19.69808112,-99999.0,'11111222,11111222,99999999' 
TABS,ioos:station:wmo:42050:1,2011-11-04T01:00:00Z,28.8425,-94.2433,2.0,209.7021758,16.7508955,-99999.0,'11111222,11111222,99999999' 
TABS,ioos:station:wmo:42050:1,2011-11-04T01:30:00Z,28.8425,-94.2433,2.0,197.237312,19.37001807,-99999.0,'11111222,11111222,99999999' 
TABS,ioos:station:wmo:42050:1,2011-11-04T02:00:00Z,28.8425,-94.2433,2.0,265.6997263,6.668770501,-99999.0,'11133222,11111222,99999999' 
TABS,ioos:station:wmo:42050:1,2011-11-04T02:30:00Z,28.8425,-94.2433,2.0,339.7619896,2.110284341,-99999.0,'11133222,11111222,99999999' 
TABS,ioos:station:wmo:42050:1,2011-11-04T03:00:00Z,28.8425,-94.2433,2.0,304.1562177,4.434974634,-99999.0,'11133222,11111222,99999999' 
TABS,ioos:station:wmo:42050:1,2011-11-04T03:30:00Z,28.8425,-94.2433,2.0,39.97104341,2.661897819,-99999.0,'11133222,11111222,99999999' 
TABS,ioos:station:wmo:42050:1,2011-11-04T04:00:00Z,28.8425,-94.2433,2.0,314.4572453,2.984124662,-99999.0,'11133222,11111222,99999999' 
TABS,ioos:station:wmo:42050:1,2011-11-04T04:30:00Z,28.8425,-94.2433,2.0,309.5257725,3.928218426,-99999.0,'11133222,11111222,99999999' 
TABS,ioos:station:wmo:42050:1,2011-11-04T05:00:00Z,28.8425,-94.2433,2.0,45.68566143,4.136870798,-99999.0,'11133222,11111222,99999999' 
TABS,ioos:station:wmo:42050:1,2011-11-04T05:30:00Z,28.8425,-94.2433,2.0,46.21593515,5.665200791,-99999.0,'11133222,11111222,99999999' 
TABS,ioos:station:wmo:42050:1,2011-11-04T06:00:00Z,28.8425,-94.2433,2.0,80.08572508,3.54290841,-99999.0,'11133222,11111222,99999999' 
TABS,ioos:station:wmo:42050:1,2011-11-04T06:30:00Z,28.8425,-94.2433,2.0,199.0084522,2.21054292,-99999.0,'11133222,11111222,99999999' 
TABS,ioos:station:wmo:42050:1,2011-11-04T07:00:00Z,28.8425,-94.2433,2.0,221.656316,6.183566932,-99999.0,'11133222,11111222,99999999' 
TABS,ioos:station:wmo:42050:1,2011-11-04T07:30:00Z,28.8425,-94.2433,2.0,192.392474,9.132798038,-99999.0,'11133222,11111222,99999999' 
TABS,ioos:station:wmo:42050:1,2011-11-04T08:00:00Z,28.8425,-94.2433,2.0,196.6892056,11.21231466,-99999.0,'11111222,11111222,99999999' 
TABS,ioos:station:wmo:42050:1,2011-11-04T08:30:00Z,28.8425,-94.2433,2.0,202.183751,22.24679752,-99999.0,'11111222,11111222,99999999' 
TABS,ioos:station:wmo:42050:1,2011-11-04T09:00:00Z,28.8425,-94.2433,2.0,194.880933,33.05877493,-99999.0,'11111222,11111222,99999999' 
TABS,ioos:station:wmo:42050:1,2011-11-04T09:30:00Z,28.8425,-94.2433,2.0,205.5834842,32.11911892,-99999.0,'11111222,11111222,99999999' 
TABS,ioos:station:wmo:42050:1,2011-11-04T10:00:00Z,28.8425,-94.2433,2.0,208.157747,27.18767736,-99999.0,'11111222,11111222,99999999' 
TABS,ioos:station:wmo:42050:1,2011-11-04T10:30:00Z,28.8425,-94.2433,2.0,208.3882689,27.40571108,-99999.0,'11111222,11111222,99999999' 
TABS,ioos:station:wmo:42050:1,2011-11-04T11:00:00Z,28.8425,-94.2433,2.0,206.4793439,32.99098362,-99999.0,'11111222,11111222,99999999' 
TABS,ioos:station:wmo:42050:1,2011-11-04T11:30:00Z,28.8425,-94.2433,2.0,215.5656429,25.92671402,-99999.0,'11111222,11111222,99999999' 
TABS,ioos:station:wmo:42050:1,2011-11-04T12:00:00Z,28.8425,-94.2433,2.0,213.5857825,25.97665298,-99999.0,'11111222,11111222,99999999' 
TABS,ioos:station:wmo:42050:1,2011-11-04T12:30:00Z,28.8425,-94.2433,2.0,217.1359019,19.7942138,-99999.0,'11111222,11111222,99999999' 
TABS,ioos:station:wmo:42050:1,2011-11-04T13:00:00Z,28.8425,-94.2433,2.0,216.7097886,20.79408089,-99999.0,'11111222,11111222,99999999' 
TABS,ioos:station:wmo:42050:1,2011-11-04T13:30:00Z,28.8425,-94.2433,2.0,217.0821998,20.482141,-99999.0,'11111222,11111222,99999999' 
TABS,ioos:station:wmo:42050:1,2011-11-04T14:00:00Z,28.8425,-94.2433,2.0,214.6817493,22.10811616,-99999.0,'11111222,11111222,99999999' 
TABS,ioos:station:wmo:42050:1,2011-11-04T14:30:00Z,28.8425,-94.2433,2.0,215.5135827,25.18505311,-99999.0,'11111222,11111222,99999999' 
TABS,ioos:station:wmo:42050:1,2011-11-04T15:00:00Z,28.8425,-94.2433,2.0,217.12557,21.93621891,-99999.0,'11111222,11111222,99999999' 
TABS,ioos:station:wmo:42050:1,2011-11-04T15:30:00Z,28.8425,-94.2433,2.0,224.4821893,21.92120435,-99999.0,'11111222,11111222,99999999' 
TABS,ioos:station:wmo:42050:1,2011-11-04T16:00:00Z,28.8425,-94.2433,2.0,226.2935395,21.60762134,-99999.0,'11111222,11111222,99999999' 
TABS,ioos:station:wmo:42050:1,2011-11-04T16:30:00Z,28.8425,-94.2433,2.0,226.379586,21.72862168,-99999.0,'11111222,11111222,99999999' 